Temp
12 11 11 11 11 11 10 11 11 11 10 10 10 10 10 11 11 11 10 9 9 9 9 9 9 9 9 9 9 10 10 10 10 9 10 10 10 10 10 10 10 10 10 10 10 10 9 9 9
12 11 11 12 11 11 10 11 11 11 11 11 10 10 11 11 11 12 11 10 9 9 9 9 9 9 9 9 9 10 10 10 10 10 10 10 9 9 10 10 10 10 10 10 10 10 10 10 9
13 12 12 11 11 11 11 12 12 11 11 10 10 10 10 11 10 10 11 10 10 9 9 9 9 9 9 9 9 10 10 10 10 10 10 10 10 10 10 10 10 10 10 10 10 10 10 9 10
12 12 12 13 12 12 13 12 12 12 11 11 11 11 10 10 10 10 10 10 9 9 9 9 9 9 9 9 9 10 10 10 10 10 10 10 10 10 10 10 10 10 10 10 10 10 9 9 9
12 13 13 13 13 12 12 12 12 12 11 11 11 11 11 10 10 10 10 10 9 9 9 9 9 9 9 9 9 9 10 10 10 10 10 10 10 10 10 10 10 10 10 10 10 10 9 10 10
13 13 13 13 13 12 12 12 12 12 11 11 11 12 10 9 10 10 10 10 9 9 9 9 9 9 9 9 9 9 9 10 10 10 10 10 10 9 10 10 10 10 10 10 10 10 10 10 10
14 13 12 13 12 12 12 12 12 13 12 11 11 12 10 9 9 9 9 9 9 9 9 9 9 9 9 9 9 9 9 10 10 10 10 9 9 9 10 10 10 10 10 10 10 10 10 10 10
14 14 13 13 12 11 12 12 12 12 12 11 11 12 12 10 9 10 9 10 9 9 9 9 9 9 9 9 9 10 10 10 10 10 10 9 9 9 10 10 10 10 10 10 10 10 10 10 10
14 13 13 14 14 13 12 12 12 11 12 11 11 10 12 11 11 10 10 9 9 9 9 9 9 9 9 9 10 10 10 10 10 10 10 9 10 10 9 9 9 10 10 10 10 10 10 10 10
14 14 14 14 14 14 13 13 13 12 11 11 11 10 11 11 11 10 10 9 9 9 9 9 9 8 9 9 9 10 10 10 10 10 10 10 10 10 10 9 8 10 10 10 10 10 11 11 11
14 14 14 14 14 14 13 13 13 12 12 11 12 11 11 10 10 9 10 9 9 9 9 9 9 8 9 9 9 9 10 10 10 10 10 10 10 10 10 10 10 11 10 10 10 11 11 11 11
14 14 14 14 13 13 13 13 12 12 12 12 11 11 11 10 10 9 10 10 9 9 9 9 8 9 9 9 10 10 10 10 10 10 10 10 10 10 10 11 11 10 10 10 10 11 11 11 11
13 12 13 13 13 12 13 13 12 12 12 11 11 11 11 10 9 9 9 9 10 10 9 9 8 9 9 9 10 10 10 10 10 10 10 10 10 10 11 11 11 10 10 10 11 11 11 11 11
13 13 13 12 13 13 13 13 12 12 13 12 11 11 10 10 9 9 9 9 9 9 9 9 9 9 9 10 10 10 10 10 10 10 9 10 10 10 11 11 11 10 11 11 11 11 11 11 11
13 13 13 12 13 13 12 12 12 12 13 12 12 11 10 9 9 9 9 9 9 9 9 9 9 9 10 10 10 10 10 10 10 10 10 9 9 10 11 11 11 11 11 12 12 12 12 12 12
13 13 13 13 13 13 13 12 12 12 12 12 12 11 10 10 9 9 9 9 9 9 9 9 9 9 9 9 9 9 10 10 10 10 10 10 10 10 10 10 10 12 12 12 12 12 12 12 13
14 14 14 13 13 13 13 13 12 12 12 12 12 11 10 9 9 9 10 9 9 9 9 9 9 9 9 9 9 9 9 10 10 10 10 10 10 11 11 10 11 12 12 12 12 12 12 12 13
15 15 15 15 14 13 13 14 14 13 12 12 12 12 11 10 10 9 10 9 9 9 9 9 9 9 9 10 10 10 10 10 10 10 10 11 10 11 11 10 10 11 12 12 12 12 12 13 13
15 15 15 15 15 14 14 13 14 14 13 12 12 13 12 11 9 9 9 9 9 9 10 9 9 9 10 11 11 11 11 10 10 10 10 11 10 11 11 11 10 11 11 12 12 12 12 12 13
16 16 16 15 15 15 14 14 13 14 15 14 13 12 12 11 10 10 10 10 10 10 9 9 9 9 9 9 9 10 10 11 10 10 10 10 10 11 10 11 11 10 11 11 12 12 12 12 12
16 16 16 16 15 15 15 14 13 14 14 13 12 12 12 12 11 11 11 10 10 10 10 10 9 9 9 9 9 10 10 11 11 10 10 10 10 10 11 10 10 11 11 11 11 12 12 12 12
16 16 16 16 15 15 15 15 16 15 14 13 12 12 12 11 10 11 11 11 11 10 10 10 10 10 10 10 10 10 10 10 11 11 10 10 10 10 10 11 10 11 11 11 11 11 11 12 12
16 16 16 16 16 16 16 15 16 16 14 13 13 12 12 11 11 10 11 11 10 10 10 10 10 10 10 10 9 10 10 10 10 11 11 11 10 10 10 11 11 11 11 11 11 11 11 11 11
15 15 15 15 15 14 16 14 15 14 15 14 13 13 12 11 11 11 12 12 11 9 9 10 10 9 10 9 10 10 10 10 10 10 10 11 11 11 11 10 11 11 11 11 11 11 11 11 12
14 15 14 12 11 11 13 13 9 13 13 14 14 12 11 11 12 11 12 13 12 10 10 9 9 10 10 10 10 9 10 10 10 9 10 10 10 11 11 11 10 11 11 11 11 11 11 11 11
14 14 14 12 9 11 11 8 9 11 12 12 12 11 11 11 10 11 11 11 11 10 9 9 9 9 9 10 10 10 10 9 10 10 10 10 10 10 10 10 11 10 10 11 11 11 11 11 11
14 14 14 14 12 10 9 8 9 9 10 10 10 11 10 10 9 10 11 10 11 10 10 10 9 9 10 10 10 10 11 11 10 10 9 9 10 11 10 10 10 11 11 11 11 11 11 11 11
14 13 14 14 10 7 9 9 9 9 9 9 9 9 9 10 11 12 12 11 11 11 10 10 9 9 10 10 10 10 11 10 10 10 10 9 9 10 11 11 10 10 10 11 11 11 11 11 11
13 13 13 13 11 7 5 8 9 9 10 10 10 10 10 10 10 10 10 10 10 9 9 9 10 11 11 12 12 11 11 11 11 11 11 11 9 9 9 10 11 10 10 10 10 11 11 11 12
13 12 13 13 10 10 9 8 9 9 9 9 10 10 10 9 9 9 9 9 10 10 10 11 11 10 10 10 11 11 12 11 11 12 11 11 11 10 9 9 9 10 10 10 10 10 10 11 11
Height
3154 3156 3156 3157 3161 3159 3158 3161 3161 3162 3164 3165 3165 3165 3168 3167 3169 3175 3174 3175 3176 3179 3181 3183 3184 3186 3188 3189 3190 3192 3193 3194 3195 3196 3197 3198 3198 3198 3198 3197 3197 3197 3197 3196 3196 3196 3197 3196 3197
3156 3156 3157 3158 3162 3162 3163 3163 3164 3165 3166 3166 3167 3168 3169 3170 3170 3172 3176 3178 3180 3182 3184 3186 3188 3189 3192 3193 3193 3195 3197 3198 3199 3200 3200 3200 3200 3200 3199 3199 3198 3199 3199 3199 3199 3199 3199 3199 3200
3158 3159 3161 3162 3164 3163 3164 3164 3166 3166 3167 3167 3168 3169 3170 3171 3171 3175 3177 3180 3181 3184 3187 3190 3191 3193 3195 3196 3197 3199 3200 3201 3202 3202 3202 3203 3202 3202 3201 3201 3201 3202 3201 3202 3201 3201 3202 3203 3203
3161 3161 3162 3162 3164 3165 3165 3166 3167 3167 3168 3170 3170 3171 3173 3174 3177 3178 3180 3183 3184 3187 3189 3192 3193 3196 3197 3198 3200 3202 3203 3204 3205 3205 3205 3205 3205 3204 3204 3204 3204 3205 3205 3204 3205 3205 3206 3206 3207
3164 3164 3164 3164 3165 3165 3167 3167 3168 3169 3168 3170 3171 3171 3174 3177 3179 3182 3184 3185 3187 3188 3190 3192 3194 3197 3199 3200 3202 3204 3206 3207 3208 3208 3207 3208 3208 3207 3208 3207 3207 3208 3208 3208 3209 3210 3210 3211 3211
3167 3167 3166 3165 3165 3168 3169 3170 3170 3170 3171 3171 3173 3174 3176 3179 3182 3183 3185 3187 3188 3190 3192 3193 3195 3199 3202 3204 3205 3207 3209 3211 3212 3211 3210 3211 3210 3210 3211 3211 3211 3212 3212 3213 3214 3215 3216 3216 3216
3168 3168 3167 3167 3168 3170 3170 3172 3172 3172 3172 3172 3175 3175 3177 3179 3182 3184 3185 3187 3188 3189 3192 3194 3198 3201 3204 3206 3208 3211 3213 3214 3214 3214 3214 3214 3213 3214 3214 3214 3215 3216 3217 3218 3219 3219 3220 3221 3221
3169 3171 3169 3170 3169 3171 3173 3174 3176 3176 3175 3176 3179 3178 3177 3180 3183 3185 3186 3187 3188 3189 3192 3195 3200 3203 3206 3208 3211 3214 3215 3216 3217 3217 3217 3217 3217 3217 3218 3218 3219 3221 3223 3224 3224 3224 3224 3225 3226
3171 3173 3171 3172 3172 3173 3174 3175 3176 3177 3176 3177 3178 3182 3181 3182 3184 3186 3188 3188 3189 3190 3192 3195 3200 3203 3207 3210 3213 3215 3218 3219 3220 3220 3220 3220 3220 3221 3221 3220 3222 3224 3226 3227 3229 3229 3229 3229 3229
3172 3173 3174 3174 3174 3173 3174 3177 3177 3177 3177 3177 3178 3180 3183 3185 3187 3189 3189 3191 3191 3192 3194 3197 3201 3204 3208 3212 3215 3218 3220 3221 3222 3223 3223 3223 3224 3224 3225 3226 3226 3228 3230 3232 3233 3233 3233 3233 3233
3174 3174 3175 3175 3176 3175 3176 3178 3178 3178 3177 3177 3178 3180 3183 3186 3189 3191 3193 3194 3195 3196 3197 3199 3202 3207 3210 3214 3217 3219 3221 3224 3225 3225 3225 3227 3227 3227 3228 3229 3230 3232 3234 3235 3236 3237 3237 3237 3236
3175 3175 3175 3177 3178 3179 3180 3180 3180 3181 3180 3179 3182 3185 3186 3188 3191 3193 3195 3197 3198 3199 3199 3201 3204 3208 3212 3215 3219 3221 3224 3225 3226 3227 3228 3229 3230 3230 3231 3233 3234 3236 3237 3239 3239 3239 3240 3240 3240
3176 3175 3177 3178 3180 3179 3180 3181 3182 3182 3181 3181 3184 3186 3189 3191 3193 3196 3198 3199 3202 3203 3203 3205 3208 3211 3214 3218 3220 3223 3226 3227 3228 3229 3230 3232 3233 3233 3235 3236 3237 3239 3240 3241 3242 3242 3243 3243 3244
3178 3180 3180 3180 3182 3182 3183 3182 3182 3183 3183 3183 3185 3187 3190 3192 3195 3198 3200 3202 3205 3207 3208 3210 3212 3215 3218 3220 3223 3225 3227 3228 3230 3231 3232 3233 3235 3236 3238 3238 3240 3241 3242 3243 3244 3245 3246 3246 3246
3179 3180 3183 3182 3182 3183 3183 3183 3183 3184 3183 3184 3186 3189 3191 3194 3197 3200 3203 3205 3209 3210 3213 3215 3217 3218 3221 3224 3225 3226 3228 3230 3231 3233 3234 3234 3235 3237 3239 3240 3242 3242 3244 3245 3246 3248 3248 3248 3249
3180 3181 3182 3183 3183 3183 3184 3183 3183 3184 3184 3184 3186 3188 3191 3194 3198 3202 3204 3207 3209 3212 3214 3216 3218 3221 3222 3224 3225 3227 3229 3230 3232 3234 3235 3235 3235 3237 3238 3240 3242 3243 3245 3246 3247 3248 3249 3250 3250
3181 3180 3180 3181 3182 3182 3183 3182 3182 3184 3184 3185 3186 3189 3192 3195 3197 3200 3204 3207 3210 3212 3214 3215 3218 3219 3222 3224 3225 3226 3228 3230 3232 3233 3234 3235 3235 3236 3238 3240 3241 3242 3245 3246 3247 3249 3250 3250 3250
3178 3179 3180 3179 3181 3180 3181 3182 3182 3183 3184 3186 3188 3190 3192 3194 3196 3199 3202 3207 3209 3211 3213 3216 3217 3219 3220 3221 3223 3224 3226 3228 3231 3232 3234 3234 3235 3237 3239 3241 3240 3241 3244 3246 3247 3248 3249 3249 3249
3177 3176 3178 3179 3179 3180 3180 3181 3181 3183 3185 3187 3189 3191 3193 3195 3198 3201 3204 3207 3209 3210 3212 3215 3217 3217 3218 3218 3220 3222 3224 3226 3228 3230 3232 3234 3234 3236 3238 3239 3240 3241 3242 3244 3245 3246 3248 3248 3247
3174 3175 3176 3178 3178 3180 3180 3180 3180 3182 3184 3187 3190 3193 3194 3196 3199 3202 3204 3206 3208 3210 3211 3213 3215 3216 3216 3216 3217 3219 3221 3224 3226 3228 3229 3231 3232 3234 3236 3237 3238 3240 3242 3244 3245 3246 3246 3246 3246
3174 3174 3175 3176 3177 3179 3180 3180 3180 3179 3184 3187 3190 3194 3195 3197 3199 3202 3205 3207 3209 3210 3211 3213 3214 3215 3216 3217 3217 3217 3218 3221 3223 3225 3227 3228 3229 3231 3233 3234 3235 3237 3239 3241 3243 3244 3243 3243 3243
3173 3175 3175 3176 3177 3177 3178 3178 3175 3177 3178 3183 3187 3190 3193 3195 3199 3201 3204 3207 3209 3211 3212 3213 3213 3214 3216 3216 3217 3218 3219 3219 3221 3223 3224 3225 3226 3227 3229 3231 3231 3232 3234 3236 3238 3239 3240 3240 3241
3174 3173 3174 3175 3175 3176 3176 3177 3173 3175 3175 3178 3181 3187 3191 3194 3197 3200 3202 3204 3207 3210 3211 3212 3213 3214 3215 3215 3216 3216 3217 3219 3220 3220 3221 3222 3223 3223 3224 3226 3228 3228 3229 3231 3233 3234 3235 3236 3237
3171 3172 3172 3173 3174 3173 3171 3171 3170 3170 3171 3173 3178 3183 3187 3192 3196 3203 3204 3203 3204 3206 3209 3210 3212 3213 3214 3214 3215 3215 3215 3215 3215 3216 3217 3220 3221 3221 3220 3221 3222 3224 3225 3226 3227 3228 3229 3230 3230
3169 3170 3170 3172 3172 3172 3170 3170 3170 3166 3166 3169 3173 3179 3185 3193 3196 3199 3200 3198 3200 3203 3207 3208 3209 3211 3213 3214 3213 3214 3214 3214 3213 3212 3213 3214 3215 3217 3218 3218 3217 3218 3220 3221 3221 3222 3222 3223 3224
3167 3168 3168 3171 3173 3170 3171 3172 3172 3168 3167 3170 3175 3181 3186 3190 3194 3195 3198 3197 3199 3201 3203 3205 3206 3206 3206 3208 3209 3210 3210 3210 3210 3211 3209 3208 3209 3211 3213 3214 3213 3213 3213 3215 3216 3216 3216 3217 3218
3166 3167 3168 3167 3169 3171 3178 3178 3176 3174 3173 3175 3176 3180 3182 3187 3188 3191 3193 3197 3197 3198 3202 3204 3204 3205 3205 3204 3205 3205 3204 3204 3205 3206 3204 3203 3203 3205 3205 3206 3207 3208 3208 3208 3209 3210 3211 3212 3213
3165 3166 3166 3166 3169 3180 3182 3180 3180 3179 3179 3179 3180 3183 3187 3189 3190 3190 3193 3195 3195 3198 3201 3202 3202 3202 3200 3199 3200 3201 3201 3200 3200 3200 3200 3200 3198 3198 3198 3199 3199 3201 3203 3204 3204 3204 3206 3206 3207
3165 3164 3165 3166 3167 3170 3182 3186 3183 3182 3181 3182 3184 3186 3188 3189 3190 3191 3194 3195 3196 3198 3200 3201 3201 3199 3198 3196 3195 3194 3193 3194 3194 3193 3193 3194 3193 3191 3191 3192 3192 3193 3194 3196 3197 3199 3199 3199 3200
3163 3164 3165 3164 3169 3168 3173 3185 3183 3185 3184 3184 3185 3187 3189 3190 3191 3192 3193 3195 3196 3198 3198 3197 3195 3194 3194 3194 3193 3191 3189 3187 3187 3184 3185 3185 3186 3185 3184 3184 3183 3185 3186 3187 3188 3190 3192 3192 3193
Wind_Speed
11 15 16 12 10 12 15 10 14 14 13 12 9 12 12 12 18 5 27 26 26 25 24 24 22 21 22 23 24 22 22 23 22 21 20 18 16 15 15 15 16 16 16 17 17 18 18 18 16
16 11 15 17 19 19 10 13 14 12 10 12 15 9 8 10 10 23 28 27 25 23 23 23 20 21 21 21 22 22 21 21 19 18 17 15 14 14 15 16 17 17 18 19 18 18 18 18 18
13 10 11 10 10 25 17 9 13 14 12 13 16 10 7 7 28 25 27 23 25 22 21 20 18 17 20 20 20 20 20 18 18 16 15 15 16 16 18 19 19 19 20 20 19 19 20 20 20
7 7 9 11 16 14 12 16 13 14 11 14 14 9 18 23 22 25 25 20 21 21 20 19 17 15 17 19 20 19 18 17 16 15 16 16 17 20 21 21 20 21 21 21 20 21 23 23 23
3 5 10 18 10 13 10 10 9 8 12 15 16 23 22 25 21 21 20 17 18 20 21 19 18 16 16 19 21 20 17 15 14 15 17 17 20 21 21 21 21 21 22 22 23 24 25 26 29
9 10 16 15 13 14 10 9 14 14 11 13 14 22 25 21 20 20 19 16 16 18 21 21 18 17 16 19 20 19 17 15 13 15 17 19 21 22 22 23 23 23 23 25 27 31 33 35 36
16 15 20 13 19 14 12 9 10 11 12 12 20 25 27 22 18 18 18 17 15 16 19 21 19 19 18 21 21 17 16 14 14 15 17 20 22 23 24 26 28 29 29 31 32 33 34 34 34
19 15 19 15 15 18 12 10 6 6 10 17 13 16 25 24 21 20 19 16 15 15 17 19 20 21 20 22 20 16 15 13 14 15 18 20 22 22 26 29 31 31 30 29 30 32 32 32 31
19 21 19 13 8 11 16 10 7 4 2 10 9 18 21 22 19 17 16 14 15 18 17 21 25 25 23 24 20 17 14 13 13 13 17 19 20 22 27 27 30 30 29 29 29 30 29 30 30
15 17 16 9 7 8 12 2 6 7 5 8 17 24 23 16 14 12 13 12 16 17 17 22 26 26 24 24 20 17 14 12 11 12 15 17 18 20 24 25 24 29 28 27 27 28 27 27 27
19 11 14 13 4 7 9 5 4 8 10 5 5 19 20 18 22 10 12 13 14 16 14 21 25 25 24 24 19 16 13 11 10 11 14 15 15 17 20 20 24 25 26 25 25 25 25 24 25
17 11 16 15 10 11 7 7 4 4 8 10 4 16 19 20 14 13 8 13 14 14 12 21 25 26 27 23 19 15 13 11 13 11 12 15 15 17 18 17 20 23 23 23 23 23 22 21 21
14 15 16 14 10 12 5 3 3 3 6 6 9 13 16 17 16 13 11 14 14 14 13 22 25 28 26 23 18 15 11 10 10 11 9 12 12 12 14 16 17 19 22 22 23 21 19 18 17
10 8 11 11 14 12 8 5 1 2 1 4 7 13 14 15 15 13 13 17 16 13 13 18 20 24 23 20 15 11 9 8 8 10 10 9 12 11 12 15 15 17 21 21 21 19 16 15 15
8 7 8 11 8 8 6 12 6 1 3 3 9 12 17 19 16 11 12 14 14 10 10 9 16 20 18 15 13 10 8 6 7 7 9 11 11 12 12 13 15 18 21 21 20 17 15 15 13
7 6 12 15 12 10 10 8 8 3 2 3 9 13 15 14 13 12 11 11 10 7 8 8 14 15 16 14 13 12 9 8 9 9 9 10 12 15 13 13 17 19 22 22 20 18 15 13 13
7 4 7 13 18 13 14 7 7 6 3 3 8 12 15 13 10 7 7 5 4 4 4 5 7 11 15 16 15 12 14 11 11 9 10 9 9 10 14 13 20 21 23 23 22 19 16 11 10
7 11 8 10 14 13 14 10 6 8 8 3 9 11 14 12 10 6 2 2 4 4 5 2 6 10 14 18 18 18 19 17 15 12 11 9 8 11 14 16 18 21 23 24 22 21 18 14 12
14 14 13 6 5 12 9 11 6 8 11 12 9 10 10 10 10 8 6 6 6 7 3 4 5 7 10 12 12 13 15 16 15 14 15 13 11 11 13 18 20 21 23 24 24 22 20 19 17
6 8 8 6 6 9 11 13 13 13 7 5 9 8 9 12 10 7 5 3 4 6 7 6 3 6 6 8 11 12 13 14 16 14 16 16 14 13 13 15 18 21 22 24 25 23 23 24 23
8 7 9 6 8 11 7 11 22 20 17 17 15 9 8 7 7 5 4 5 6 7 4 4 3 1 4 9 14 14 15 16 17 16 16 16 17 17 16 16 18 21 24 25 26 26 26 26 27
1 6 3 3 9 7 14 5 13 18 22 25 22 19 11 12 12 5 2 2 4 5 1 1 0 1 3 7 11 13 14 15 15 15 16 19 20 19 21 20 20 21 21 22 26 28 28 29 27
8 9 7 6 6 10 13 8 11 14 27 29 28 25 20 18 17 16 8 8 11 6 1 3 2 3 2 5 9 10 10 11 16 16 16 18 22 23 23 23 22 22 21 19 20 23 29 30 29
8 10 11 13 11 6 7 15 5 3 21 32 33 30 30 21 18 7 11 10 11 10 5 6 4 1 1 4 6 8 9 9 11 15 17 17 20 24 26 25 23 22 22 21 20 21 23 26 30
6 7 3 1 1 6 7 2 9 7 8 25 34 33 36 23 18 7 15 12 15 16 12 11 7 4 4 3 2 5 6 7 9 12 15 16 17 22 26 28 28 26 23 23 23 24 24 24 26
8 7 4 5 3 3 6 8 6 4 6 22 31 28 29 19 22 21 22 21 14 15 18 17 14 17 19 16 16 14 12 10 11 12 14 17 18 18 22 27 29 29 28 27 27 28 27 26 26
7 4 3 1 3 6 5 12 8 5 13 10 13 16 14 19 25 30 30 22 17 14 15 17 17 19 22 24 19 21 21 21 20 18 22 17 17 18 17 18 26 32 31 30 30 31 30 29 27
4 5 2 2 3 4 4 7 10 14 20 24 22 21 20 16 14 18 23 22 17 13 13 14 13 16 17 19 24 27 23 22 22 25 25 25 21 21 22 21 21 25 31 33 33 33 32 32 30
2 2 2 3 3 6 4 4 20 22 22 22 23 20 15 11 8 6 7 9 9 13 11 14 15 15 17 20 25 26 28 24 21 27 24 29 28 26 25 24 24 25 27 30 35 37 35 35 33
8 5 3 1 2 8 10 6 15 17 18 19 20 20 18 17 15 13 10 10 12 16 16 18 20 20 19 18 21 27 30 28 31 28 32 32 30 31 29 28 29 29 29 30 33 35 37 38 36
Wind_Direction
98 101 114 114 108 116 116 128 125 145 130 154 139 142 134 150 154 164 155 149 144 142 136 133 125 123 121 121 123 121 117 112 107 102 99 96 93 91 90 91 93 93 95 94 93 93 89 87 85
89 92 104 103 116 122 102 139 126 144 165 153 151 148 156 152 189 156 152 147 144 144 143 139 131 131 130 126 123 122 116 110 104 98 93 93 94 95 95 94 93 93 93 92 91 91 93 90 88
95 91 97 103 136 130 113 117 119 118 170 172 179 194 209 163 143 147 151 149 147 148 146 146 136 135 137 133 127 123 118 112 103 93 87 91 96 99 97 96 95 94 94 94 93 93 94 96 94
71 92 94 138 137 145 118 129 124 102 120 199 212 177 137 140 135 145 147 146 156 155 153 153 148 141 142 140 133 127 121 111 101 93 95 96 101 100 98 96 94 95 95 95 97 98 99 97 96
86 130 123 138 138 158 134 101 97 102 116 140 160 139 136 134 136 135 143 147 157 166 165 161 157 150 141 139 135 131 119 109 99 99 100 103 106 103 100 98 97 95 98 102 103 103 101 102 101
129 134 124 123 123 140 138 105 87 83 109 142 168 156 138 138 142 143 140 137 149 171 175 172 166 157 143 139 138 132 120 107 97 103 107 113 107 104 103 99 99 100 100 102 105 105 105 101 99
149 135 119 111 127 146 150 117 84 48 70 116 156 153 141 142 148 150 146 144 147 162 177 178 171 160 152 146 142 130 118 103 101 104 115 115 111 110 107 104 102 102 104 107 106 104 103 101 99
137 133 143 135 152 169 152 123 93 38 90 114 151 173 155 149 153 154 149 144 143 152 169 174 166 165 157 150 140 131 119 106 106 113 124 120 119 117 109 113 109 109 110 111 111 110 106 104 102
155 139 136 136 129 164 160 145 134 93 43 125 150 167 163 152 149 145 145 140 141 139 151 166 168 167 160 156 147 142 124 108 110 121 134 129 129 127 123 122 118 119 120 117 117 113 111 108 104
150 154 156 147 101 103 164 208 40 57 97 134 157 167 165 146 133 127 133 124 135 144 146 164 171 172 160 158 154 144 128 112 118 131 140 140 140 134 125 128 124 126 124 123 122 118 115 111 106
155 133 175 179 116 114 122 154 52 34 44 55 131 158 156 135 123 101 132 136 143 145 154 161 170 165 160 162 155 149 133 125 126 135 149 148 146 139 142 132 128 129 128 130 127 121 118 114 109
136 134 155 161 157 154 129 91 89 43 19 73 104 156 140 134 106 83 110 127 138 129 132 155 161 157 159 160 159 152 148 127 129 139 149 157 160 152 148 136 130 131 132 133 132 129 124 117 111
139 132 123 174 159 190 175 83 49 58 358 92 141 158 151 130 119 104 120 142 141 124 120 150 152 156 158 162 158 160 150 137 134 137 143 171 173 160 150 142 136 137 138 139 138 135 128 122 117
144 129 142 155 157 166 180 163 168 182 236 123 154 153 162 148 138 137 125 131 139 130 121 149 161 167 172 170 170 169 168 154 146 148 149 165 183 178 158 153 151 156 152 149 147 140 136 131 126
139 157 161 160 178 191 198 177 206 268 152 148 152 156 144 139 149 136 118 146 127 128 152 153 169 171 172 184 192 191 197 190 165 165 170 166 181 196 180 162 174 175 168 158 152 152 151 149 145
172 193 181 184 191 215 219 215 197 170 62 183 166 163 153 154 143 154 137 137 171 142 153 176 194 197 207 214 225 234 226 217 206 191 181 181 171 187 182 177 191 183 179 168 166 170 169 168 164
238 181 181 185 198 209 212 216 194 190 162 193 189 175 169 160 163 158 137 157 165 197 132 146 191 206 217 225 221 217 230 231 216 214 207 190 177 182 187 192 195 190 189 184 180 183 187 186 185
239 238 224 184 195 194 207 220 182 175 188 185 190 184 179 175 165 186 164 243 253 268 269 239 193 209 216 217 224 226 224 222 238 227 221 214 200 193 195 197 205 199 198 198 195 198 202 207 212
257 268 241 213 194 208 197 223 225 196 195 202 189 178 178 161 170 211 235 264 286 263 260 285 253 229 232 230 235 237 233 230 234 234 228 224 219 214 211 201 209 216 210 212 209 210 219 229 229
152 212 219 233 213 196 219 233 257 245 236 194 191 173 149 156 179 194 223 258 322 305 294 266 233 247 251 259 250 246 244 235 235 228 221 226 228 228 226 221 214 224 230 228 228 222 229 240 245
107 161 183 229 199 213 210 263 239 249 242 229 218 226 181 158 176 145 106 63 24 10 318 247 197 257 277 258 254 247 245 241 226 224 224 229 230 235 233 225 228 226 228 231 239 239 236 239 246
247 161 136 174 207 217 223 261 238 245 236 227 226 218 203 181 204 222 316 1 14 22 70 162 149 191 237 251 270 272 262 252 247 235 231 233 234 232 236 233 230 235 235 234 236 239 243 246 246
250 240 233 257 260 271 247 247 272 226 234 228 226 222 217 199 202 218 233 265 249 268 126 150 117 96 7 300 276 279 283 267 258 249 242 235 237 235 232 237 238 238 243 239 240 243 245 250 251
230 245 268 265 270 290 295 240 207 269 240 225 220 221 219 209 186 177 334 195 218 229 216 177 153 120 51 320 300 290 286 281 271 267 262 262 252 245 241 240 244 244 243 243 241 241 248 251 253
212 253 265 256 131 217 352 148 347 310 235 228 220 216 218 209 154 154 161 214 232 237 262 268 259 228 254 234 265 303 294 285 279 268 270 268 267 258 249 247 245 247 248 245 245 245 245 249 253
209 215 203 191 177 305 41 24 24 36 185 209 215 217 220 214 211 222 221 197 221 233 257 258 258 271 260 249 251 246 257 266 276 277 271 266 271 264 259 252 247 246 246 248 246 246 246 246 248
188 195 283 197 93 79 57 89 89 160 141 156 187 175 199 194 214 231 219 218 221 228 250 253 268 272 286 266 260 259 250 256 263 259 271 268 266 265 264 263 257 251 247 247 247 247 248 250 249
187 209 236 198 129 106 64 61 105 119 126 132 129 137 154 180 193 186 204 212 216 208 245 282 286 284 287 284 278 271 271 289 278 265 267 265 261 260 260 258 257 258 260 259 255 252 251 251 253
148 95 74 107 58 142 121 79 124 136 144 150 146 146 153 163 162 162 166 209 220 236 258 270 287 298 291 286 287 290 284 271 276 286 270 258 260 259 259 260 258 257 258 260 262 261 256 254 253
153 98 107 75 110 106 119 153 168 151 155 159 160 162 173 182 180 189 199 219 234 254 275 290 298 296 295 294 281 277 278 277 265 263 265 271 262 255 255 256 257 255 255 255 258 262 262 263 258